• In Belgium
  • List of Countries
  • For 7 days
  • Water Temperature
  • Satellite Maps
  • Weather Map
  • Weather Widgets
  • user-avatar
    Login

    Hourly Weather Losiha

    Today, 25 September, Tuesday

    Time Temperature Precipitation Wind Pressure Humidity
    00:00 +8°C° 0 mm 3 mps 752 mmHg 96%
    01:00 +8°C° 0.2 mm 2 mps 752 mmHg 96%
    02:00 +8°C° 0.2 mm 2 mps 752 mmHg 96%
    03:00 +8°C° 0.2 mm 2 mps 752 mmHg 96%
    04:00 +8°C° 0.2 mm 2 mps 753 mmHg 96%
    05:00 +9°C° 0.2 mm 2 mps 753 mmHg 95%
    06:00 +9°C° 0 mm 2 mps 753 mmHg 95%
    07:00 +9°C° 0 mm 2 mps 754 mmHg 92%
    08:00 +10°C° 0 mm 2 mps 754 mmHg 90%
    09:00 +10°C° 0 mm 2 mps 755 mmHg 88%
    10:00 +12°C° 0 mm 2 mps 755 mmHg 82%
    11:00 +13°C° 0 mm 2 mps 755 mmHg 76%
    12:00 +13°C° 0 mm 3 mps 755 mmHg 72%
    13:00 +13°C° 0 mm 3 mps 755 mmHg 68%
    14:00 +14°C° 0 mm 3 mps 755 mmHg 64%
    15:00 +14°C° 0 mm 3 mps 755 mmHg 60%
    16:00 +14°C° 0 mm 3 mps 755 mmHg 64%
    17:00 +14°C° 0 mm 2 mps 756 mmHg 68%
    18:00 +13°C° 0 mm 2 mps 756 mmHg 72%
    19:00 +12°C° 0 mm 2 mps 756 mmHg 76%
    20:00 +12°C° 0 mm 2 mps 756 mmHg 80%
    21:00 +10°C° 0 mm 2 mps 757 mmHg 84%
    22:00 +10°C° 0 mm 2 mps 757 mmHg 85%
    23:00 +10°C° 0 mm 2 mps 757 mmHg 86%

    Tomorrow, 26 September, Wednesday

    Time Temperature Precipitation Wind Pressure Humidity
    00:00 +10°C° 0 mm 2 mps 757 mmHg 88%
    01:00 +10°C° 0 mm 2 mps 757 mmHg 89%
    02:00 +10°C° 0 mm 2 mps 757 mmHg 91%
    03:00 +9°C° 0 mm 2 mps 757 mmHg 93%
    04:00 +9°C° 0 mm 2 mps 757 mmHg 94%
    05:00 +9°C° 0 mm 2 mps 758 mmHg 95%
    06:00 +8°C° 0 mm 2 mps 758 mmHg 95%
    07:00 +10°C° 0 mm 2 mps 758 mmHg 90%
    08:00 +11°C° 0 mm 3 mps 758 mmHg 85%
    09:00 +12°C° 0 mm 3 mps 758 mmHg 79%
    10:00 +14°C° 0 mm 3 mps 758 mmHg 74%
    11:00 +17°C° 0 mm 3 mps 758 mmHg 68%
    12:00 +18°C° 0 mm 4 mps 758 mmHg 63%
    13:00 +19°C° 0 mm 3 mps 758 mmHg 61%
    14:00 +20°C° 0 mm 3 mps 758 mmHg 59%
    15:00 +20°C° 0 mm 3 mps 758 mmHg 57%
    16:00 +19°C° 0 mm 3 mps 758 mmHg 63%
    17:00 +18°C° 0 mm 2 mps 758 mmHg 68%
    18:00 +17°C° 0 mm 2 mps 758 mmHg 74%
    19:00 +16°C° 0 mm 2 mps 758 mmHg 78%
    20:00 +15°C° 0 mm 2 mps 758 mmHg 82%
    21:00 +14°C° 0 mm 2 mps 758 mmHg 86%
    22:00 +14°C° 0 mm 1 mps 758 mmHg 87%
    23:00 +13°C° 0 mm 1 mps 758 mmHg 88%

    Day after tomorrow, 27 September, Thursday

    Time Temperature Precipitation Wind Pressure Humidity
    00:00 +13°C° 0 mm 1 mps 758 mmHg 90%
    01:00 +13°C° 0 mm 1 mps 758 mmHg 91%
    02:00 +12°C° 0 mm 1 mps 758 mmHg 92%
    03:00 +12°C° 0 mm 1 mps 758 mmHg 92%
    04:00 +12°C° 0 mm 1 mps 758 mmHg 93%
    05:00 +12°C° 0 mm 1 mps 758 mmHg 93%
    06:00 +11°C° 0 mm 1 mps 758 mmHg 94%
    07:00 +13°C° 0 mm 1 mps 758 mmHg 89%
    08:00 +14°C° 0 mm 1 mps 758 mmHg 84%
    09:00 +15°C° 0 mm 0 mps 758 mmHg 80%
    10:00 +16°C° 0 mm 0 mps 758 mmHg 74%
    11:00 +18°C° 0 mm 0 mps 758 mmHg 68%
    12:00 +19°C° 0 mm 0 mps 758 mmHg 62%
    13:00 +20°C° 0 mm 0 mps 758 mmHg 60%
    14:00 +22°C° 0 mm 1 mps 757 mmHg 58%
    15:00 +23°C° 0 mm 1 mps 757 mmHg 55%
    16:00 +21°C° 0 mm 1 mps 757 mmHg 61%
    17:00 +20°C° 0 mm 1 mps 757 mmHg 66%
    18:00 +19°C° 0 mm 1 mps 757 mmHg 72%
    19:00 +18°C° 0 mm 1 mps 757 mmHg 75%
    20:00 +16°C° 0 mm 1 mps 757 mmHg 79%
    21:00 +15°C° 0 mm 1 mps 757 mmHg 82%
    22:00 +15°C° 0 mm 2 mps 757 mmHg 85%
    23:00 +14°C° 0 mm 2 mps 756 mmHg 87%

    28 September, Friday

    Time Temperature Precipitation Wind Pressure Humidity
    00:00 +14°C° 0 mm 2 mps 756 mmHg 89%
    01:00 +13°C° 0 mm 2 mps 756 mmHg 90%
    02:00 +13°C° 0 mm 2 mps 755 mmHg 91%
    03:00 +13°C° 0 mm 2 mps 755 mmHg 92%
    04:00 +12°C° 0 mm 2 mps 755 mmHg 93%
    05:00 +12°C° 0 mm 2 mps 755 mmHg 93%
    06:00 +11°C° 0 mm 3 mps 754 mmHg 94%
    07:00 +12°C° 0 mm 3 mps 754 mmHg 88%
    08:00 +13°C° 0 mm 3 mps 754 mmHg 82%
    09:00 +16°C° 0 mm 3 mps 754 mmHg 77%
    10:00 +17°C° 0 mm 3 mps 753 mmHg 70%
    11:00 +19°C° 0 mm 3 mps 753 mmHg 63%
    12:00 +20°C° 0 mm 3 mps 752 mmHg 56%
    13:00 +21°C° 0 mm 3 mps 752 mmHg 53%
    14:00 +21°C° 0 mm 3 mps 752 mmHg 51%
    15:00 +22°C° 0 mm 3 mps 751 mmHg 49%
    16:00 +20°C° 0 mm 2 mps 751 mmHg 55%
    17:00 +19°C° 0 mm 2 mps 751 mmHg 60%
    18:00 +17°C° 0 mm 2 mps 750 mmHg 66%
    19:00 +16°C° 0 mm 2 mps 750 mmHg 70%
    20:00 +15°C° 0 mm 2 mps 750 mmHg 73%
    21:00 +15°C° 0 mm 2 mps 750 mmHg 76%
    22:00 +14°C° 0 mm 2 mps 750 mmHg 78%
    23:00 +14°C° 0 mm 2 mps 750 mmHg 79%

    29 September, Saturday

    Time Temperature Precipitation Wind Pressure Humidity
    00:00 +13°C° 0 mm 2 mps 750 mmHg 81%
    01:00 +13°C° 0 mm 2 mps 750 mmHg 80%
    02:00 +12°C° 0 mm 2 mps 749 mmHg 79%
    03:00 +12°C° 0 mm 2 mps 749 mmHg 79%
    04:00 +12°C° 0 mm 2 mps 749 mmHg 78%
    05:00 +10°C° 0 mm 2 mps 749 mmHg 76%
    06:00 +10°C° 0 mm 2 mps 750 mmHg 75%
    07:00 +12°C° 0 mm 3 mps 750 mmHg 68%
    08:00 +13°C° 0 mm 3 mps 750 mmHg 61%
    09:00 +14°C° 0 mm 4 mps 750 mmHg 54%
    10:00 +17°C° 0 mm 4 mps 751 mmHg 51%
    11:00 +17°C° 0 mm 5 mps 751 mmHg 47%
    12:00 +19°C° 0 mm 5 mps 751 mmHg 44%
    13:00 +17°C° 0 mm 6 mps 752 mmHg 47%
    14:00 +17°C° 0 mm 6 mps 753 mmHg 50%
    15:00 +16°C° 0 mm 6 mps 754 mmHg 53%
    16:00 +15°C° 0 mm 5 mps 754 mmHg 56%
    17:00 +13°C° 0 mm 3 mps 755 mmHg 58%
    18:00 +13°C° 0 mm 2 mps 756 mmHg 61%
    19:00 +12°C° 0 mm 2 mps 757 mmHg 62%
    20:00 +10°C° 0 mm 2 mps 757 mmHg 63%
    21:00 +10°C° 0 mm 2 mps 758 mmHg 65%
    22:00 +9°C° 0 mm 2 mps 758 mmHg 65%
    23:00 +9°C° 0 mm 2 mps 759 mmHg 65%

    30 September, Sunday

    Time Temperature Precipitation Wind Pressure Humidity
    00:00 +9°C° 0 mm 2 mps 759 mmHg 65%
    01:00 +8°C° 0 mm 2 mps 759 mmHg 66%
    02:00 +8°C° 0 mm 2 mps 759 mmHg 67%
    03:00 +8°C° 0 mm 2 mps 759 mmHg 68%
    04:00 +7°C° 0 mm 2 mps 759 mmHg 69%
    05:00 +7°C° 0 mm 2 mps 759 mmHg 70%
    06:00 +7°C° 0 mm 2 mps 759 mmHg 72%
    07:00 +8°C° 0 mm 2 mps 759 mmHg 67%
    08:00 +10°C° 0 mm 2 mps 759 mmHg 63%
    09:00 +11°C° 0 mm 3 mps 759 mmHg 59%
    10:00 +13°C° 0 mm 3 mps 759 mmHg 53%
    11:00 +16°C° 0 mm 3 mps 758 mmHg 47%
    12:00 +17°C° 0 mm 3 mps 758 mmHg 41%
    13:00 +18°C° 0 mm 2 mps 758 mmHg 39%
    14:00 +18°C° 0 mm 2 mps 757 mmHg 37%
    15:00 +19°C° 0 mm 2 mps 757 mmHg 35%
    16:00 +17°C° 0 mm 2 mps 757 mmHg 39%
    17:00 +16°C° 0 mm 1 mps 757 mmHg 44%
    18:00 +14°C° 0 mm 1 mps 757 mmHg 49%
    19:00 +13°C° 0 mm 1 mps 757 mmHg 51%
    20:00 +12°C° 0 mm 1 mps 757 mmHg 52%
    21:00 +12°C° 0 mm 1 mps 757 mmHg 54%
    22:00 +11°C° 0 mm 1 mps 756 mmHg 56%
    23:00 +11°C° 0 mm 1 mps 756 mmHg 58%
    Show more